Previsão horária em Alloa

Hoje, 18 Janeiro, Segunda-feira

Tempo Temperatura Precipitação Vento Pressão Humidade
00:00 +3°C° 0 mm 5 m/s 751 mmHg 93%
01:00 +3°C° 1.5 mm 5 m/s 751 mmHg 93%
02:00 +3°C° 1.5 mm 4 m/s 750 mmHg 93%
03:00 +3°C° 1.5 mm 4 m/s 750 mmHg 93%
04:00 +2°C° 0 mm 3 m/s 750 mmHg 91%
05:00 +2°C° 0 mm 3 m/s 750 mmHg 89%
06:00 0°C° 0 mm 4 m/s 750 mmHg 88%
07:00 +1°C° 0 mm 3 m/s 750 mmHg 88%
08:00 +1°C° 0 mm 3 m/s 749 mmHg 88%
09:00 +1°C° 0 mm 3 m/s 749 mmHg 88%
10:00 +2°C° 0 mm 3 m/s 749 mmHg 87%
11:00 +2°C° 0 mm 3 m/s 749 mmHg 87%
12:00 +3°C° 0 mm 4 m/s 749 mmHg 88%
13:00 +3°C° 0.1 mm 4 m/s 748 mmHg 90%
14:00 +3°C° 0.1 mm 3 m/s 748 mmHg 92%
15:00 +3°C° 0.1 mm 3 m/s 747 mmHg 93%
16:00 +3°C° 0.5 mm 3 m/s 746 mmHg 93%
17:00 +3°C° 0.5 mm 3 m/s 746 mmHg 93%
18:00 +3°C° 0.5 mm 4 m/s 745 mmHg 92%
19:00 +3°C° 0.3 mm 3 m/s 745 mmHg 93%
20:00 +3°C° 0.3 mm 3 m/s 744 mmHg 94%
21:00 +4°C° 0.3 mm 2 m/s 744 mmHg 95%
22:00 +3°C° 0.1 mm 2 m/s 743 mmHg 95%
23:00 +4°C° 0.1 mm 1 m/s 743 mmHg 96%

Amanhã, 19 Janeiro, Terça-feira

Tempo Temperatura Precipitação Vento Pressão Humidade
00:00 +4°C° 0.1 mm 1 m/s 742 mmHg 96%
01:00 +4°C° 0 mm 1 m/s 742 mmHg 96%
02:00 +3°C° 0 mm 1 m/s 741 mmHg 96%
03:00 +3°C° 0 mm 1 m/s 740 mmHg 96%
04:00 +3°C° 0 mm 1 m/s 740 mmHg 96%
05:00 +2°C° 0 mm 1 m/s 739 mmHg 95%
06:00 +2°C° 0 mm 1 m/s 739 mmHg 95%
07:00 +2°C° 0 mm 1 m/s 738 mmHg 95%
08:00 +2°C° 0 mm 1 m/s 738 mmHg 95%
09:00 +2°C° 0 mm 1 m/s 738 mmHg 95%
10:00 +2°C° 0 mm 1 m/s 737 mmHg 94%
11:00 +2°C° 0 mm 0 m/s 737 mmHg 93%
12:00 +2°C° 0 mm 0 m/s 736 mmHg 91%
13:00 +2°C° 0 mm 0 m/s 735 mmHg 92%
14:00 +2°C° 0 mm 0 m/s 735 mmHg 92%
15:00 +2°C° 0 mm 0 m/s 734 mmHg 92%
16:00 +2°C° 0 mm 1 m/s 733 mmHg 93%
17:00 +2°C° 0 mm 1 m/s 733 mmHg 93%
18:00 +2°C° 0 mm 1 m/s 732 mmHg 93%
19:00 +2°C° 0 mm 1 m/s 732 mmHg 92%
20:00 +1°C° 0 mm 1 m/s 731 mmHg 92%
21:00 +1°C° 0 mm 1 m/s 731 mmHg 91%
22:00 +1°C° 0 mm 1 m/s 731 mmHg 90%
23:00 +1°C° 0 mm 1 m/s 730 mmHg 89%

Depois de amanhã, 20 Janeiro, Quarta-feira

Tempo Temperatura Precipitação Vento Pressão Humidade
00:00 +1°C° 0 mm 1 m/s 730 mmHg 89%
01:00 +1°C° 0 mm 1 m/s 730 mmHg 88%
02:00 +1°C° 0 mm 1 m/s 730 mmHg 87%
03:00 0°C° 0 mm 1 m/s 729 mmHg 86%
04:00 0°C° 0 mm 1 m/s 729 mmHg 86%
05:00 0°C° 0 mm 1 m/s 729 mmHg 85%
06:00 0°C° 0 mm 1 m/s 729 mmHg 84%
07:00 0°C° 0 mm 1 m/s 729 mmHg 84%
08:00 0°C° 0 mm 1 m/s 729 mmHg 83%
09:00 0°C° 0 mm 1 m/s 729 mmHg 82%
10:00 0°C° 0 mm 1 m/s 729 mmHg 80%
11:00 +1°C° 0 mm 1 m/s 729 mmHg 77%
12:00 +2°C° 0 mm 1 m/s 729 mmHg 74%
13:00 +2°C° 0 mm 1 m/s 728 mmHg 75%
14:00 +2°C° 0 mm 1 m/s 728 mmHg 75%
15:00 +2°C° 0 mm 1 m/s 727 mmHg 76%
16:00 +1°C° 0 mm 1 m/s 727 mmHg 77%
17:00 +1°C° 0 mm 1 m/s 726 mmHg 78%
18:00 -1°C° 0 mm 2 m/s 726 mmHg 78%
19:00 -1°C° 0 mm 2 m/s 725 mmHg 80%
20:00 -1°C° 0 mm 2 m/s 725 mmHg 81%
21:00 -1°C° 0 mm 2 m/s 724 mmHg 83%
22:00 -1°C° 0 mm 2 m/s 723 mmHg 83%
23:00 -1°C° 0 mm 3 m/s 722 mmHg 84%

21 Janeiro, Quinta-feira

Tempo Temperatura Precipitação Vento Pressão Humidade
00:00 -1°C° 0 mm 4 m/s 722 mmHg 85%
01:00 -1°C° 0.8 mm 4 m/s 721 mmHg 88%
02:00 -1°C° 0.8 mm 4 m/s 720 mmHg 92%
03:00 -2°C° 0.8 mm 5 m/s 719 mmHg 96%
04:00 -1°C° 1.5 mm 5 m/s 719 mmHg 93%
05:00 -1°C° 1.5 mm 5 m/s 719 mmHg 90%
06:00 -2°C° 1.5 mm 6 m/s 718 mmHg 87%
07:00 -1°C° 0.1 mm 5 m/s 719 mmHg 86%
08:00 -1°C° 0.1 mm 5 m/s 719 mmHg 86%
09:00 -1°C° 0.1 mm 5 m/s 720 mmHg 85%
10:00 -1°C° 0 mm 5 m/s 721 mmHg 84%
11:00 0°C° 0 mm 5 m/s 722 mmHg 84%
12:00 0°C° 0 mm 5 m/s 723 mmHg 83%
13:00 0°C° 0 mm 5 m/s 723 mmHg 82%
14:00 0°C° 0 mm 4 m/s 723 mmHg 82%
15:00 0°C° 0 mm 4 m/s 724 mmHg 81%
16:00 -1°C° 0 mm 4 m/s 724 mmHg 81%
17:00 -1°C° 0 mm 4 m/s 725 mmHg 82%
18:00 -1°C° 0 mm 4 m/s 725 mmHg 82%
19:00 -2°C° 0 mm 4 m/s 726 mmHg 83%
20:00 -2°C° 0 mm 4 m/s 726 mmHg 83%
21:00 -2°C° 0 mm 4 m/s 726 mmHg 83%
22:00 -2°C° 0 mm 4 m/s 727 mmHg 83%
23:00 -2°C° 0 mm 4 m/s 728 mmHg 83%

22 Janeiro, Sexta-feira

Tempo Temperatura Precipitação Vento Pressão Humidade
00:00 -2°C° 0 mm 4 m/s 728 mmHg 83%
01:00 -1°C° 0 mm 3 m/s 729 mmHg 83%
02:00 -1°C° 0 mm 3 m/s 729 mmHg 84%
03:00 -1°C° 0 mm 3 m/s 730 mmHg 84%
04:00 -2°C° 0 mm 3 m/s 730 mmHg 85%
05:00 -2°C° 0 mm 3 m/s 731 mmHg 85%
06:00 -2°C° 0 mm 2 m/s 732 mmHg 86%
07:00 -2°C° 0 mm 2 m/s 732 mmHg 86%
08:00 -2°C° 0 mm 2 m/s 733 mmHg 86%
09:00 -3°C° 0 mm 2 m/s 733 mmHg 86%
10:00 -2°C° 0 mm 2 m/s 734 mmHg 84%
11:00 -1°C° 0 mm 2 m/s 734 mmHg 82%
12:00 +1°C° 0 mm 2 m/s 734 mmHg 80%
13:00 +1°C° 0 mm 2 m/s 734 mmHg 80%
14:00 -1°C° 0 mm 2 m/s 735 mmHg 80%
15:00 -1°C° 0 mm 2 m/s 735 mmHg 79%
16:00 -2°C° 0 mm 2 m/s 735 mmHg 80%
17:00 -2°C° 0 mm 2 m/s 735 mmHg 81%
18:00 -3°C° 0 mm 2 m/s 735 mmHg 82%
19:00 -3°C° 0 mm 2 m/s 735 mmHg 82%
20:00 -3°C° 0 mm 2 m/s 735 mmHg 83%
21:00 -4°C° 0 mm 2 m/s 735 mmHg 83%
22:00 -4°C° 0 mm 2 m/s 735 mmHg 83%
23:00 -4°C° 0 mm 2 m/s 735 mmHg 83%

23 Janeiro, Sábado

Tempo Temperatura Precipitação Vento Pressão Humidade
00:00 -4°C° 0 mm 2 m/s 735 mmHg 83%
01:00 -4°C° 0 mm 2 m/s 735 mmHg 83%
02:00 -4°C° 0 mm 2 m/s 735 mmHg 83%
03:00 -4°C° 0 mm 2 m/s 735 mmHg 83%
04:00 -4°C° 0 mm 2 m/s 735 mmHg 83%
05:00 -4°C° 0 mm 2 m/s 734 mmHg 83%
06:00 -4°C° 0 mm 2 m/s 734 mmHg 83%
07:00 -4°C° 0 mm 2 m/s 734 mmHg 84%
08:00 -4°C° 0 mm 2 m/s 734 mmHg 84%
09:00 -4°C° 0 mm 2 m/s 734 mmHg 84%
10:00 -4°C° 0 mm 3 m/s 734 mmHg 84%
11:00 -1°C° 0 mm 3 m/s 734 mmHg 83%
12:00 0°C° 0 mm 3 m/s 734 mmHg 82%
13:00 0°C° 0 mm 3 m/s 734 mmHg 82%
14:00 0°C° 0 mm 3 m/s 733 mmHg 81%
15:00 0°C° 0 mm 3 m/s 733 mmHg 81%
16:00 -1°C° 0 mm 3 m/s 733 mmHg 83%
17:00 -2°C° 0 mm 3 m/s 733 mmHg 86%
18:00 -4°C° 0 mm 3 m/s 733 mmHg 88%
19:00 -4°C° 0 mm 3 m/s 733 mmHg 90%
20:00 -4°C° 0 mm 3 m/s 734 mmHg 92%
21:00 -4°C° 0 mm 3 m/s 734 mmHg 93%
22:00 -4°C° 0 mm 3 m/s 734 mmHg 93%
23:00 -3°C° 0 mm 2 m/s 734 mmHg 93%
Mostrar mais

Necessitamos do seu Consentimento

A Meteoprog e os seus Fornecedores de Serviços podem armazenar e aceder a dados pessoais como cookies, identificadores do dispositivo ou outras tecnologias semelhantes existentes no seu dispositivo e processar estes dados para personalizar conteúdos e anúncios, assim como funcionalidades nas redes sociais e análise de tráfego.

  • Armazenar e/ou aceder a informações no seu dispositivo

    Os cookies, identificadores do dispositivo ou outras informações podem ser armazenados ou acedidos no seu dispositivo, para os fins acima indicados.

  • Anúncios e conteúdos personalizados, medição de anúncios e conteúdos, dados sobre o público-alvo e desenvolvimento de produtos

    Os anúncios e os conteúdos podem ser personalizados com base num perfil. Podem ser adicionados dados adicionais para uma maior personalização dos anúncios e dos conteúdos. A eficácia dos anúncios e dos conteúdos pode ser medida. Podem ser obtidas informações sobre o público que visualizou os anúncios e os conteúdos. Estes dados podem ser usados para desenvolver ou melhorar sistemas, softwares ou a experiência do utilizador.

Ao clicar em "Eu concordo”, permitirá o uso de cookies, identificadores do dispositivo e web beacons mencionados ou outras tecnologias semelhantes. As configurações do navegador do seu dispositivo podem ser alteradas.

Para certos fins, podem ser invocados interesses legítimos ao invés de consentimento. Pode ler mais informação sobre este assunto na nossa Política de Privacidade e Cookies.